Location: DARK SKY Beskydy - Park tmavé oblohy, www.darkskybeskydy.cz
(49.4926°N, 18.5016°E)
Time: 11:06:58
(UTC+02:00)

Vanguard 1 - Pass Details

Date: 24 February 2024
Orbit: 653 x 3825 km, 34.2° (Epoch: 12 April)

Event Time Altitude Azimuth Distance (km) Brightness Sun altitude
Rises 22:27:39 0° 259° (W) 6,401 14.4 -45.6°
Reaches altitude 10° 22:31:29 10° 254° (WSW) 5,734 14.0 -45.9°
Enters shadow 22:43:27 43° 223° (SW) 4,393 13.0 -46.9°
Maximum altitude 22:49:39 51° 187° (S) 4,319 - -47.4°
Drops below altitude 10° 23:11:16 10° 121° (ESE) 6,683 - -48.7°
Sets 23:16:14 0° 116° (ESE) 7,478 - -48.9°
